Regional Weather Roundup
Issued by NWS New Orleans/Baton Rouge, LA

Home | Current Version | Previous Version | Text Only | Print | Product List | Glossary Off
Versions: 1 2 3 4 5 6 7 8 9 10 11 12 13 14 15 16 17 18 19 20 21 22 23 24 25 26 27 28 29 30 31 32 33 34 35 36 37 38 39 40 41 42 43 44 45 46 47 48 49 50

715
ASUS44 KLIX 240301
RWRLIX
NEW ORLEANS REGIONAL WEATHER ROUNDUP
NATIONAL WEATHER SERVICE NEW ORLEANS LA
1000 PM CDT WED APR 23 2014

NOTE: "FAIR" INDICATES FEW OR NO CLOUDS BELOW 12,000 FEET WITH NO
      SIGNIFICANT WEATHER AND/OR OBSTRUCTIONS TO VISIBILITY.
      SKY/WX - SKY CONDITION AND SIGNIFICANT WEATHER.
      TMP - AIR TEMPERATURE.     DP    - DEWPOINT TEMPERATURE.
      RH  - RELATIVE HUMIDITY.   PRES  - PRESSURE.
      HI  - HEAT INDEX.          WCI   - WIND CHILL INDEX.

*  THESE STATIONS ARE NOT NWS OR FAA STATIONS AND ARE NOT UNDER
   NWS QUALITY CONTROL.

LAZ038-040-048-061>063-065>067-069-240400-
SOUTHEAST LOUISIANA

CITY           SKY/WX    TMP DP  RH WIND       PRES   REMARKS
N.O. AUDUBON     N/A     69  66  88 MISG        N/A
N.O. INTL ARPT PTCLDY    71  65  81 SW9       29.93R
N.O. LAKEFRONT CLEAR     73  65  75 SW10      29.93R
N.O. DOWNTOWN*   N/A     75  63  64 S5        29.94R
SLIDELL        CLEAR     65  59  81 CALM      29.92R
BATON ROUGE    PTCLDY    72  61  68 S8        29.92R
BOOTHVILLE     CLEAR     72  65  78 SW7       29.94R
BELLE CHASSE   PTCLDY    68  62  81 CALM      29.93R
BOGALUSA*        N/A     67  61  80 CALM      29.93R
GALLIANO*      CLEAR     69  64  83 S3        29.94R
NEW ROADS*     NOT AVBL
GONZALES*        N/A     70  64  81 S3        29.92R
HAMMOND*       NOT AVBL
HOUMA*           N/A     67  61  81 CALM      29.94R
PORT FOURCHON* CLEAR     72  66  83 SW6       29.96R

$$

MSZ070-080>082-240400-
SOUTHERN MISSISSIPPI

CITY           SKY/WX    TMP DP  RH WIND       PRES   REMARKS
MCCOMB         CLEAR     63  53  70 CALM      29.92R
GULFPORT       CLEAR     72  64  76 S3        29.92R
BILOXI         NOT AVBL
PASCAGOULA     CLEAR     65  65 100 CALM      29.93R FOG

$$

COASTAL OBSERVATIONS
LAKE AND NEARSHORE STATIONS

STATION/POSITION TIME  TEMP    WIND        PRES    WAVE
                       AIR SEA DIR/SP/G            HT/PER
                 (UTC) (F)     (DEG/KT/KT) (MB)    (FT/S)
PASCAGOULA       0200   71     200/  6/  7 1012.7
WAVELAND YACHT   0200   72 75  200/  5/  7 1012.4
GRAND ISLE       0200   72 72  210/  5/  7 1014.1
SOUTHWEST PASS   0200   67 61  200/  5/  7 1014.1
NEW CANAL        0200   74 73  210/  7/ 10 1013.5
SHELL BEACH      0200   72 71  190/  6/  6 1013.1

OFFSHORE STATIONS

STATION/POSITION TIME  TEMP    WIND        PRES    WAVE
                       AIR SEA DIR/SP/G            HT/PER
                 (UTC) (F)     (DEG/KT/KT) (MB)    (FT/S)
64 S DAUPHIN ISL 0232   70 72  240/  4/  6 1014.1

$$




USA.gov is the U.S. government's official web portal to all federal, state and local government web resources and services.